This demonstration page uses our WeatherBlox Daily Observations layout. Learn more.

40.92945, -100.16068

Hourly Observations for December 25, 2015

Temp ( °F °C ) Dew Point ( °F °C ) Humidity (%) Winds ( mph kmh ) Pressure ( in mb ) Visibility ( mi km ) Precip ( " mm )
12:15 am 00:15 Clear 23 -5 18 -7.7 82 82 Calm 30.21 1023 10 16.0934 N/A
12:35 am 00:35 Clear 20 -6.5 17 -8.5 86 86 Calm 30.21 1023 10 16.0934 N/A
12:55 am 00:55 Clear 20 -6.9 16 -8.8 87 87 ENE 3 6 30.21 1023 10 16.0934 N/A
1:15 am 01:15 Clear 19 -7.2 16 -8.9 88 88 E 3 6 30.21 1023 10 16.0934 N/A
1:35 am 01:35 Clear 18 -7.6 16 -9.1 89 89 ESE 5 7 30.24 1024 10 16.0934 N/A
1:55 am 01:55 Clear 18 -7.6 15 -9.2 88 88 E 3 6 30.24 1024 10 16.0934 N/A
2:15 am 02:15 Clear 18 -7.7 15 -9.2 89 89 E 3 6 30.24 1024 10 16.0934 N/A
2:35 am 02:35 Clear 18 -7.7 16 -9.1 90 90 E 5 7 30.24 1024 10 16.0934 N/A
2:55 am 02:55 Clear 18 -8 15 -9.5 89 89 E 5 7 30.24 1024 10 16.0934 N/A
3:15 am 03:15 Clear 18 -7.7 16 -9.1 90 90 ESE 3 6 30.24 1024 10 16.0934 N/A
3:35 am 03:35 Clear 19 -7.5 16 -8.9 90 90 ESE 5 7 30.21 1023 10 16.0934 N/A
3:55 am 03:55 Clear 20 -6.9 17 -8.4 89 89 ESE 3 6 30.21 1023 10 16.0934 N/A
4:15 am 04:15 Clear 21 -6.2 18 -8 87 87 E 5 7 30.21 1023 10 16.0934 N/A
4:35 am 04:35 Clear 22 -5.6 18 -7.9 84 84 E 3 6 30.21 1023 10 16.0934 N/A
4:55 am 04:55 Mostly Cloudy 22 -5.5 18 -7.8 84 84 Calm 30.21 1023 10 16.0934 N/A
5:15 am 05:15 Mostly Cloudy 23 -5 19 -7.5 83 83 SE 6 9 30.21 1023 10 16.0934 N/A
5:35 am 05:35 Mostly Cloudy 23 -5 18 -7.8 81 81 E 5 7 30.21 1023 10 16.0934 N/A
5:55 am 05:55 Partly Cloudy 23 -4.8 19 -7 85 85 E 7 11 30.15 1021 10 16.0934 0 0
6:15 am 06:15 Partly Cloudy 24 -4.7 19 -7 84 84 Calm 30.21 1023 10 16.0934 N/A
6:35 am 06:35 Mostly Cloudy 24 -4.2 20 -6.5 84 84 SSE 6 9 30.18 1022 10 16.0934 N/A
6:55 am 06:55 Cloudy 26 -3.1 20 -6.5 78 78 SE 6 9 30.15 1021 10 16.0934 N/A
7:15 am 07:15 Cloudy 28 -2.1 21 -6.3 73 73 SE 7 11 30.12 1020 10 16.0934 N/A
7:35 am 07:35 Cloudy 30 -1.3 22 -5.4 74 74 SSE 8 13 30.12 1020 10 16.0934 N/A
7:55 am 07:55 Cloudy 30 -1 22 -5.4 72 72 SSE 12 19 30.12 1020 10 16.0934 N/A
8:15 am 08:15 Cloudy 31 -0.8 22 -5.4 71 71 SE 8 13 30.12 1020 10 16.0934 N/A
8:35 am 08:35 Cloudy 32 -0.1 25 -4.1 75 75 SSE 9 15 30.15 1021 10 16.0934 N/A
8:55 am 08:55 Cloudy 34 1 25 -3.8 71 71 S 15 24 30.12 1020 10 16.0934 N/A
9:15 am 09:15 Cloudy 35 1.6 25 -3.8 68 68 S 18 30 30.12 1020 10 16.0934 N/A
9:35 am 09:35 Cloudy 35 1.7 26 -3.4 69 69 S 15 24 30.12 1020 10 16.0934 N/A
9:55 am 09:55 Cloudy 35 1.5 27 -2.6 74 74 SSE 13 20 30.12 1020 10 16.0934 N/A
10:15 am 10:15 Cloudy 36 2 29 -1.8 76 76 SSE 12 19 30.12 1020 10 16.0934 N/A
10:35 am 10:35 Cloudy 37 2.5 28 -2.3 71 71 SE 14 22 30.12 1020 10 16.0934 N/A
10:55 am 10:55 Cloudy 37 2.9 29 -1.5 73 73 SE 12 19 30.12 1020 10 16.0934 N/A
11:15 am 11:15 Cloudy 37 2.6 30 -1.3 76 76 SE 12 19 30.12 1020 10 16.0934 N/A
11:35 am 11:35 Cloudy 37 3 30 -1.1 75 75 SE 13 20 30.09 1019 10 16.0934 N/A
11:55 am 11:55 Cloudy 37 3 29 -1.6 72 72 ESE 13 20 30.09 1019 10 16.0934 N/A
12:15 pm 12:15 Cloudy 37 3 28 -2.5 67 67 SE 14 22 30.09 1019 10 16.0934 N/A
12:35 pm 12:35 Cloudy 37 3 26 -3.5 63 63 SE 16 26 30.06 1018 10 16.0934 N/A
12:55 pm 12:55 Cloudy 37 2.8 23 -5 57 57 SE 17 28 30.03 1017 10 16.0934 N/A
1:15 pm 13:15 Cloudy 37 2.7 24 -4.5 59 59 SE 17 28 29.97 1015 10 16.0934 N/A
1:35 pm 13:35 Cloudy 37 2.5 23 -5 58 58 SE 16 26 29.97 1015 10 16.0934 N/A
1:55 pm 13:55 Cloudy 37 2.5 23 -5 58 58 ESE 17 28 29.97 1015 10 16.0934 N/A
2:15 pm 14:15 Cloudy 36 2.2 24 -4.6 61 61 ESE 16 26 29.97 1015 10 16.0934 N/A
2:35 pm 14:35 Cloudy 35 1.7 23 -4.9 62 62 SE 12 19 30 1016 10 16.0934 N/A
2:55 pm 14:55 Cloudy 35 1.5 25 -4.1 67 67 ESE 15 24 30 1016 10 16.0934 N/A
3:15 pm 15:15 Cloudy 34 1.3 24 -4.3 67 67 E 14 22 29.97 1015 10 16.0934 N/A
3:35 pm 15:35 Cloudy 34 1.1 25 -4.1 69 69 ESE 21 33 29.97 1015 10 16.0934 N/A
3:55 pm 15:55 Cloudy 34 1 25 -3.8 71 71 E 17 28 29.97 1015 10 16.0934 N/A
4:15 pm 16:15 Cloudy 33 0.8 26 -3.5 73 73 ESE 16 26 29.97 1015 10 16.0934 N/A
4:35 pm 16:35 Cloudy 33 0.5 26 -3.1 77 77 E 12 19 29.97 1015 10 16.0934 N/A
4:55 pm 16:55 Cloudy 32 0.2 27 -3 79 79 E 15 24 29.97 1015 10 16.0934 N/A
5:15 pm 17:15 Cloudy 32 0.1 27 -2.7 82 82 E 10 17 29.97 1015 10 16.0934 N/A
5:35 pm 17:35 Cloudy 32 0 27 -2.7 82 82 E 15 24 29.97 1015 10 16.0934 N/A
5:55 pm 17:55 Cloudy 32 0 27 -2.7 82 82 ESE 16 26 29.97 1015 10 16.0934 N/A
6:15 pm 18:15 Cloudy 32 0 27 -2.8 82 82 ESE 14 22 29.97 1015 10 16.0934 N/A
6:35 pm 18:35 Cloudy 32 -0.1 27 -2.8 82 82 E 13 20 29.97 1015 10 16.0934 N/A
6:55 pm 18:55 Mostly Cloudy 32 -0.1 27 -2.7 83 83 E 12 19 30 1016 10 16.0934 N/A
7:15 pm 19:15 Cloudy 32 0 27 -2.6 83 83 E 13 20 30 1016 10 16.0934 N/A
7:35 pm 19:35 Cloudy 32 0 28 -2.5 83 83 E 15 24 30 1016 10 16.0934 N/A
7:55 pm 19:55 Cloudy 32 0 28 -2.5 83 83 ESE 13 20 30 1016 10 16.0934 N/A
8:15 pm 20:15 Cloudy 32 0 28 -2.3 85 85 E 9 15 30 1016 10 16.0934 N/A
8:35 pm 20:35 Cloudy 32 -0.1 28 -2.3 85 85 E 12 19 30 1016 10 16.0934 N/A
8:55 pm 20:55 Cloudy 32 -0.2 28 -2.2 87 87 E 13 20 30 1016 10 16.0934 N/A
9:15 pm 21:15 Cloudy 32 -0.2 28 -2.1 87 87 ESE 13 20 30 1016 10 16.0934 N/A
9:35 pm 21:35 Cloudy with Light Snow 31 -0.3 28 -2 88 88 ESE 12 19 30 1016 4 6.43736 N/A
9:55 pm 21:55 Cloudy with Light Snow 31 -0.5 28 -2 90 90 E 16 26 30 1016 1 1.60934 N/A
10:15 pm 22:15 Cloudy with Snow 31 -0.7 28 -2 91 91 E 15 24 30 1016 1 1.60934 0.02 0.508
10:35 pm 22:35 Cloudy with Light Snow 30 -1 28 -2 93 93 E 16 26 30 1016 1.5 2.41401 0.03 0.762
10:55 pm 22:55 Cloudy with Snow 30 -1.1 28 -2.1 93 93 E 14 22 30 1016 1 1.60934 0.03 0.762
11:15 pm 23:15 Cloudy with Snow 30 -1.3 28 -2.2 94 94 E 10 17 30.03 1017 0.5 0.80467 N/A
11:35 pm 23:35 Cloudy with Heavy Snow 29 -1.5 28 -2.5 93 93 E 13 20 30 1016 0.25 0.402335 N/A
11:55 pm 23:55 Cloudy with Light Snow 29 -1.7 27 -2.6 94 94 E 10 17 30 1016 0.75 1.207005 0.01 0.254

Powered by AerisWeather